Radiation Dose measured at exhaust stack monitor of Fukushima Daiichi Nuclear Power Station
Date,Time,Unit 5 6 shared exhaust cylinders,Wind Direction,Wind Velocity(m/s)
2021/12/28,00:00,4.1,west-northwest,5.8
2021/12/28,00:10,4.1,west-northwest,4.7
2021/12/28,00:20,4.0,west,4.6
2021/12/28,00:30,3.9,west,6.3
2021/12/28,00:40,4.0,west-northwest,5.2
2021/12/28,00:50,4.1,north-northwest,5.5
2021/12/28,01:00,3.9,north-northwest,7.3
2021/12/28,01:10,4.1,north-northwest,7.0
2021/12/28,01:20,4.0,north-northwest,8.9
2021/12/28,01:30,4.1,north-northwest,8.3
2021/12/28,01:40,4.0,northwest,9.6
2021/12/28,01:50,4.2,northwest,8.7
2021/12/28,02:00,4.2,northwest,8.6
2021/12/28,02:10,4.1,northwest,7.9
2021/12/28,02:20,4.0,north-northwest,7.9
2021/12/28,02:30,4.2,northwest,8.3
2021/12/28,02:40,4.0,northwest,8.2
2021/12/28,02:50,4.1,west-northwest,6.0
2021/12/28,03:00,4.2,west-northwest,5.4
2021/12/28,03:10,4.1,west-northwest,6.3
2021/12/28,03:20,3.9,west-northwest,5.1
2021/12/28,03:30,4.1,northwest,5.3
2021/12/28,03:40,4.0,northwest,7.4
2021/12/28,03:50,4.0,northwest,7.5
2021/12/28,04:00,4.2,northwest,6.4
2021/12/28,04:10,4.0,northwest,7.1
2021/12/28,04:20,4.1,northwest,7.7
2021/12/28,04:30,4.1,northwest,9.1
2021/12/28,04:40,4.0,northwest,10.3
2021/12/28,04:50,4.1,west-northwest,6.3
2021/12/28,05:00,4.0,northwest,5.3
2021/12/28,05:10,4.0,northwest,8.7
2021/12/28,05:20,4.2,northwest,7.8
2021/12/28,05:30,4.0,northwest,7.7
2021/12/28,05:40,4.2,northwest,6.8
2021/12/28,05:50,4.2,northwest,6.2
2021/12/28,06:00,4.1,northwest,6.3
2021/12/28,06:10,4.1,northwest,6.5
2021/12/28,06:20,4.3,northwest,5.4
2021/12/28,06:30,4.0,northwest,4.9
2021/12/28,06:40,4.1,northwest,4.7
2021/12/28,06:50,4.1,northwest,5.1
2021/12/28,07:00,4.3,northwest,3.9
2021/12/28,07:10,4.2,northwest,4.2
2021/12/28,07:20,4.0,northwest,3.8
2021/12/28,07:30,4.2,northwest,3.8
2021/12/28,07:40,4.1,north-northwest,4.0
2021/12/28,07:50,4.1,north-northwest,4.9
2021/12/28,08:00,4.1,northwest,4.1
2021/12/28,08:10,4.1,northwest,4.3
2021/12/28,08:20,4.1,northwest,4.7
2021/12/28,08:30,4.2,north-northwest,4.2
2021/12/28,08:40,4.1,north-northwest,4.1
2021/12/28,08:50,4.0,north,5.1
2021/12/28,09:00,4.1,north,4.5
2021/12/28,09:10,4.2,north-northwest,4.8
2021/12/28,09:20,4.0,north-northwest,5.0
2021/12/28,09:30,4.1,north-northwest,5.2
2021/12/28,09:40,4.0,north-northwest,5.4
2021/12/28,09:50,3.8,north-northwest,5.6
2021/12/28,10:00,4.0,north-northwest,7.2
2021/12/28,10:10,4.1,northwest,6.2
2021/12/28,10:20,4.1,north-northwest,6.6
2021/12/28,10:30,4.1,north-northwest,7.4
2021/12/28,10:40,4.1,northwest,7.2
2021/12/28,10:50,4.1,northwest,7.0
2021/12/28,11:00,4.2,northwest,6.8
2021/12/28,11:10,4.0,northwest,7.9
2021/12/28,11:20,4.0,northwest,6.4
2021/12/28,11:30,4.1,northwest,7.0
2021/12/28,11:40,4.1,northwest,7.0
2021/12/28,11:50,3.9,north-northwest,4.9
2021/12/28,12:00,4.0,north-northwest,5.4
2021/12/28,12:10,3.9,north-northwest,6.0
2021/12/28,12:20,4.1,north-northwest,5.6
2021/12/28,12:30,4.0,north-northwest,6.1
2021/12/28,12:40,4.0,north-northwest,6.8
2021/12/28,12:50,4.2,north-northwest,7.1
2021/12/28,13:00,4.0,north-northwest,6.3
2021/12/28,13:10,4.0,north-northwest,6.7
2021/12/28,13:20,4.3,north,4.9
2021/12/28,13:30,4.1,north-northwest,5.2
2021/12/28,13:40,3.9,north-northwest,5.2
2021/12/28,13:50,4.1,north-northwest,3.4
2021/12/28,14:00,3.9,north-northwest,4.6
2021/12/28,14:10,4.0,north-northwest,2.5
2021/12/28,14:20,4.1,north-northwest,2.6
2021/12/28,14:30,4.2,north-northwest,4.0
2021/12/28,14:40,4.2,north-northeast,3.4
2021/12/28,14:50,4.2,north-northeast,2.9
2021/12/28,15:00,4.0,north,2.8
2021/12/28,15:10,4.1,north,2.2
2021/12/28,15:20,4.0,north-northeast,2.5
2021/12/28,15:30,4.1,northwest,2.2
2021/12/28,15:40,4.1,north-northwest,3.2
2021/12/28,15:50,4.0,south-southwest,2.2
2021/12/28,16:00,4.0,south,3.0
2021/12/28,16:10,4.0,north-northeast,2.6
2021/12/28,16:20,3.9,north,2.5
2021/12/28,16:30,4.1,north-northwest,1.2
2021/12/28,16:40,4.2,north,1.5
2021/12/28,16:50,4.1,-,CALM
2021/12/28,17:00,4.0,southwest,3.6
2021/12/28,17:10,4.0,southwest,2.6
2021/12/28,17:20,4.0,west-southwest,1.5
2021/12/28,17:30,4.0,southwest,2.2
2021/12/28,17:40,4.0,southwest,2.0
2021/12/28,17:50,4.2,west-southwest,1.7
2021/12/28,18:00,4.0,west,1.5
2021/12/28,18:10,3.9,west-northwest,1.4
2021/12/28,18:20,4.1,west,2.0
2021/12/28,18:30,4.0,west,3.4
2021/12/28,18:40,4.0,west,4.1
2021/12/28,18:50,4.1,west,3.8
2021/12/28,19:00,4.2,west,3.7
2021/12/28,19:10,4.1,west,4.3
2021/12/28,19:20,4.2,west-southwest,4.1
2021/12/28,19:30,4.2,west-southwest,4.0
2021/12/28,19:40,4.2,west-southwest,4.3
2021/12/28,19:50,3.9,west,4.2
2021/12/28,20:00,4.1,west,3.7
2021/12/28,20:10,4.0,west,3.6
2021/12/28,20:20,4.2,west,2.8
2021/12/28,20:30,3.9,west,3.0
2021/12/28,20:40,4.1,west,4.3
2021/12/28,20:50,4.0,west,4.2
2021/12/28,21:00,4.2,west,3.0
2021/12/28,21:10,4.2,west,1.9
2021/12/28,21:20,4.1,west-southwest,1.9
2021/12/28,21:30,4.0,southwest,2.0
2021/12/28,21:40,3.9,west-southwest,2.3
2021/12/28,21:50,4.1,west,3.3
2021/12/28,22:00,4.1,west,3.3
2021/12/28,22:10,4.0,west-southwest,3.2
2021/12/28,22:20,4.2,west-southwest,4.1
2021/12/28,22:30,4.0,west-southwest,5.0
2021/12/28,22:40,4.0,west-southwest,5.3
2021/12/28,22:50,4.0,west-southwest,6.3
2021/12/28,23:00,4.3,west-southwest,7.8
2021/12/28,23:10,4.1,west-southwest,8.0
2021/12/28,23:20,4.1,west-southwest,7.2
2021/12/28,23:30,4.2,west-southwest,6.2
2021/12/28,23:40,4.1,west-southwest,6.0
2021/12/28,23:50,4.1,west-southwest,6.5
